Flag for Canada Weather past 2 weeks in Fort St. John, British Columbia, Canada

Now
57 °F

Broken clouds.


Feels Like: 52 °F
Forecast: 45 / 61 °F
Wind: 24 mph from North

Location: Fort St John

Current Time: May 27, 2015 at 5:31:47 PM

Latest Report: May 27, 2015 at 5:00 PM


Visibility: 15 mi

Pressure: 30.10 "Hg

Humidity: 67%

Dew point: 46 °F

Location of Fort St. JohnLocation

Historic Weather in Fort St. John — Graph

°F

Fort St. John temperature yesterday

Maximum temperature yesterday: 73 °F (at 4:00 PM)
Minimum temperature yesterday: 50 °F (at 5:00 AM)
Average temperature yesterday: 61 °F

Past Weeks' High & Low Weather Summary

 TemperatureHumidityPressure
High79 °F (May 23, 2:00 PM)88% (May 26, 4:00 AM)30.40 "Hg (May 26, 4:00 AM)
Low30 °F (May 17, 5:00 AM)15% (May 12, 7:00 PM)29.83 "Hg (May 14, 8:00 PM)
Average58 °F44%30.07 "Hg
* Reported May 12 4:00 PM — May 27 4:00 PM, Fort St. John, Weather by CustomWeather, © 2015

Note: Actual official high and low records may vary slightly from our data, if they occured in-between our weather recording intervals... More about our weather records

Advertising

Fort St. John weather history for previous 24 hours

 ConditionsComfort  
Time TempWeatherWind HumidityBarometerVisibility
4:00 PM
Wed, May 27
64 °FScattered clouds.23 mph56%30.05 "Hg15 mi
3:00 PM64 °FScattered clouds.22 mph60%30.03 "Hg15 mi
2:00 PM68 °FPartly sunny.16 mph53%30.00 "Hg15 mi
1:00 PM68 °FBroken clouds.13 mph49%29.99 "Hg15 mi
12:00 PM68 °FScattered clouds.14 mph46%29.99 "Hg15 mi
11:00 AM64 °FScattered clouds.2 mph60%29.98 "Hg15 mi
10:00 AM61 °FPartly sunny.9 mph63%29.97 "Hg15 mi
9:00 AM61 °FPartly sunny.5 mph68%29.97 "Hg15 mi
8:00 AM57 °FBroken clouds.6 mph72%29.96 "Hg15 mi
7:00 AM55 °FBroken clouds.2 mph77%29.96 "Hg15 mi
6:00 AM54 °FPartly sunny.2 mph82%29.95 "Hg15 mi
5:00 AM52 °FPartly cloudy.7 mph82%29.96 "Hg15 mi
4:00 AM55 °FPassing clouds.5 mph72%29.95 "Hg15 mi
3:00 AM54 °FPassing clouds.7 mph77%29.95 "Hg15 mi
2:00 AM57 °FPassing clouds.9 mph67%29.96 "Hg15 mi
1:00 AM61 °FPassing clouds.6 mph55%29.96 "Hg15 mi
12:00 AM57 °FPartly cloudy.3 mph63%29.98 "Hg15 mi
11:00 PM
Tue, May 26
59 °FPartly cloudy.9 mph63%29.99 "Hg15 mi
10:00 PM61 °FBroken clouds.10 mph63%30.00 "Hg15 mi
9:00 PM64 °FMore clouds than sun.3 mph68%29.99 "Hg15 mi
8:00 PM70 °FPartly sunny.No wind53%29.98 "Hg15 mi
7:00 PM70 °FPartly sunny.3 mph53%29.98 "Hg15 mi
6:00 PM72 °FPartly sunny.3 mph44%29.99 "Hg15 mi
5:00 PM73 °FPartly sunny.6 mph44%30.01 "Hg15 mi
Weather by CustomWeather, © 2015

See weather overviewHow to use our weather pages